| time (UTC) | temp C | wind direction | speed KPH | gust KPH | rain 1hr cm | rain 24hr cm | rain mn cm | humidity % | barometer mb |
| 20260507113037 | 7 | 39 | 0.0 | 0.0 | 0.00 | 1.88 | 1.80 | 96 | 1008.5 |
| 20260507111537 | 6 | 39 | 0.0 | 3.2 | 0.00 | 1.88 | 1.80 | 96 | 1008.7 |
| 20260507110042 | 6 | 39 | 0.0 | 0.0 | 0.00 | 1.88 | 1.80 | 96 | 1008.6 |
| 20260507104534 | 5 | 39 | 0.0 | 3.2 | 0.00 | 1.88 | 1.80 | 96 | 1008.4 |
| 20260507103031 | 4 | 39 | 0.0 | 0.0 | 0.00 | 1.88 | 1.80 | 96 | 1008.3 |
| 20260507101531 | 4 | 39 | 0.0 | 0.0 | 0.00 | 1.88 | 1.80 | 95 | 1008.1 |
| 20260507100031 | 3 | 39 | 0.0 | 0.0 | 0.00 | 1.88 | 1.80 | 95 | 1008.0 |
| 20260507094530 | 3 | 39 | 0.0 | 1.6 | 0.00 | 1.88 | 1.80 | 94 | 1008.2 |
| 20260507093058 | 3 | 39 | 0.0 | 1.6 | 0.00 | 1.88 | 1.80 | 94 | 1008.3 |
| 20260507091558 | 3 | 39 | 0.0 | 0.0 | 0.00 | 1.88 | 1.80 | 94 | 1008.3 |
| 20260507090058 | 4 | 39 | 0.0 | 0.0 | 0.00 | 1.88 | 1.80 | 94 | 1008.6 |
| 20260507084552 | 4 | 39 | 0.0 | 1.6 | 0.00 | 1.88 | 1.80 | 94 | 1008.5 |
| 20260507083051 | 5 | 39 | 0.0 | 0.0 | 0.00 | 1.88 | 1.80 | 94 | 1008.4 |
| 20260507081548 | 5 | 39 | 0.0 | 1.6 | 0.00 | 1.88 | 1.80 | 94 | 1008.4 |
| 20260507080044 | 5 | 39 | 0.0 | 0.0 | 0.00 | 1.88 | 1.80 | 94 | 1008.4 |
| 20260507074552 | 5 | 39 | 0.0 | 0.0 | 0.00 | 1.88 | 1.80 | 94 | 1008.3 |
| 20260507073045 | 5 | 39 | 0.0 | 1.6 | 0.00 | 1.88 | 1.80 | 94 | 1008.4 |
| 20260507071540 | 6 | 39 | 0.0 | 0.0 | 0.00 | 1.88 | 1.80 | 94 | 1008.2 |
| 20260507070041 | 6 | 39 | 0.0 | 0.0 | 0.00 | 1.88 | 1.80 | 94 | 1008.0 |
| 20260507064536 | 6 | 39 | 0.0 | 1.6 | 0.00 | 1.88 | 1.80 | 94 | 1008.0 |
| 20260507063051 | 6 | 39 | 0.0 | 0.0 | 0.00 | 1.88 | 1.80 | 94 | 1007.5 |
| 20260507061536 | 6 | 39 | 0.0 | 0.0 | 0.00 | 1.88 | 1.80 | 94 | 1008.1 |
| 20260507060042 | 6 | 39 | 0.0 | 0.0 | 0.00 | 1.88 | 1.80 | 94 | 1008.0 |
| 20260507054531 | 6 | 39 | 0.0 | 0.0 | 0.00 | 1.88 | 1.80 | 94 | 1008.3 |
| 20260507053031 | 6 | 39 | 0.0 | 1.6 | 0.00 | 1.88 | 1.80 | 94 | 1008.6 |
| 20260507051529 | 6 | 39 | 0.0 | 0.0 | 0.00 | 1.88 | 1.80 | 93 | 1008.6 |
| 20260507050033 | 6 | 39 | 0.0 | 0.0 | 0.00 | 1.88 | 1.80 | 93 | 1008.1 |
| 20260507044524 | 6 | 39 | 0.0 | 1.6 | 0.00 | 1.88 | 1.80 | 93 | 1008.2 |
| 20260507043022 | 7 | 39 | 0.0 | 1.6 | 0.00 | 1.88 | 1.80 | 93 | 1008.0 |
| 20260507041521 | 7 | 39 | 0.0 | 4.8 | 0.00 | 1.88 | 1.80 | 93 | 1007.8 |
| 20260507040049 | 7 | 39 | 0.0 | 1.6 | 0.00 | 1.88 | 1.80 | 93 | 1008.0 |
| 20260507034550 | 7 | 39 | 0.0 | 4.8 | 0.00 | 1.88 | 1.80 | 93 | 1008.2 |
| 20260507033019 | 7 | 39 | 0.0 | 3.2 | 0.00 | 1.88 | 1.80 | 92 | 1008.1 |
| 20260507031517 | 7 | 339 | 0.0 | 4.8 | 0.03 | 1.88 | 1.80 | 91 | 1008.3 |
| 20260507030010 | 7 | 41 | 0.0 | 8.0 | 0.05 | 1.88 | 1.80 | 92 | 1008.3 |
| 20260507024504 | 7 | 32 | 1.6 | 4.8 | 0.05 | 1.88 | 1.80 | 91 | 1008.2 |
| 20260507023001 | 7 | 349 | 1.6 | 4.8 | 0.03 | 1.85 | 1.78 | 92 | 1008.4 |
| 20260507021602 | 8 | 328 | 1.6 | 4.8 | 0.03 | 1.85 | 1.78 | 92 | 1008.4 |
| 20260507014602 | 8 | 38 | 0.0 | 3.2 | 0.00 | 1.83 | 1.75 | 91 | 1008.2 |
| 20260507013116 | 8 | 19 | 1.6 | 4.8 | 0.00 | 1.83 | 1.75 | 91 | 1008.1 |
| 20260507011553 | 8 | 26 | 0.0 | 9.7 | 0.00 | 1.83 | 1.75 | 92 | 1007.9 |
| 20260507004549 | 9 | 14 | 0.0 | 3.2 | 0.00 | 1.83 | 1.75 | 92 | 1007.2 |
| 20260507003044 | 10 | 14 | 0.0 | 4.8 | 0.00 | 1.83 | 1.75 | 91 | 1006.8 |
| 20260507001545 | 10 | 20 | 1.6 | 8.0 | 0.00 | 1.83 | 1.75 | 91 | 1006.6 |
| 20260506234528 | 10 | 27 | 0.0 | 3.2 | 0.00 | 1.83 | 1.75 | 93 | 1005.7 |
| 20260506233018 | 11 | 27 | 0.0 | 1.6 | 0.13 | 1.83 | 1.75 | 92 | 1005.3 |
| 20260506231515 | 11 | 27 | 0.0 | 8.0 | 0.13 | 1.83 | 1.75 | 90 | 1005.1 |
| 20260506230011 | 12 | 34 | 3.2 | 12.9 | 0.13 | 1.83 | 1.75 | 88 | 1004.9 |
| 20260506224508 | 14 | 47 | 4.8 | 11.3 | 0.13 | 1.83 | 1.75 | 90 | 1004.4 |
| 20260506223003 | 15 | 269 | 0.0 | 1.6 | 0.03 | 1.70 | 1.63 | 94 | 1004.0 |
| 20260506221501 | 15 | 269 | 0.0 | 0.0 | 0.25 | 1.70 | 1.63 | 94 | 1003.9 |
| 20260506220104 | 15 | 269 | 0.0 | 3.2 | 0.43 | 1.70 | 1.63 | 94 | 1003.9 |
| 20260506220007 | 15 | 269 | 0.0 | 3.2 | 0.43 | 1.70 | 1.63 | 94 | 1003.9 |
| 20260506214602 | 15 | 269 | 0.0 | 3.2 | 0.43 | 1.70 | 1.63 | 94 | 1003.9 |
| 20260506213100 | 15 | 269 | 0.0 | 3.2 | 0.41 | 1.68 | 1.60 | 94 | 1003.9 |
| 20260506211609 | 15 | 269 | 0.0 | 4.8 | 0.20 | 1.42 | 1.37 | 93 | 1003.8 |
| 20260506210056 | 16 | 69 | 1.6 | 6.4 | 0.05 | 1.27 | 1.19 | 94 | 1003.6 |
| 20260506204555 | 16 | 273 | 0.0 | 3.2 | 0.08 | 1.27 | 1.19 | 94 | 1003.7 |
| 20260506203053 | 15 | 113 | 1.6 | 3.2 | 0.10 | 1.27 | 1.19 | 94 | 1003.8 |
| 20260506201549 | 15 | 119 | 0.0 | 3.2 | 0.25 | 1.24 | 1.17 | 94 | 1003.9 |
| 20260506200049 | 15 | 17 | 0.0 | 4.8 | 0.53 | 1.22 | 1.14 | 94 | 1004.0 |
| 20260506194549 | 15 | 15 | 0.0 | 3.2 | 0.56 | 1.19 | 1.12 | 94 | 1004.2 |
| 20260506193044 | 15 | 15 | 0.0 | 3.2 | 0.56 | 1.14 | 1.07 | 94 | 1004.4 |
| 20260506191540 | 15 | 15 | 1.6 | 3.2 | 0.46 | 0.99 | 0.91 | 93 | 1004.5 |
| 20260506190038 | 15 | 15 | 1.6 | 3.2 | 0.20 | 0.69 | 0.61 | 93 | 1004.6 |
| 20260506184535 | 15 | 28 | 0.0 | 3.2 | 0.18 | 0.64 | 0.56 | 94 | 1004.7 |
| 20260506183036 | 15 | 28 | 1.6 | 4.8 | 0.18 | 0.58 | 0.51 | 93 | 1004.9 |
| 20260506181530 | 15 | 22 | 0.0 | 3.2 | 0.20 | 0.53 | 0.46 | 93 | 1005.0 |
| 20260506180028 | 15 | 22 | 0.0 | 4.8 | 0.20 | 0.48 | 0.41 | 93 | 1005.1 |
| 20260506174525 | 15 | 139 | 1.6 | 3.2 | 0.23 | 0.46 | 0.38 | 92 | 1005.5 |
| 20260506173024 | 15 | 100 | 1.6 | 4.8 | 0.25 | 0.41 | 0.33 | 92 | 1005.7 |
| 20260506171520 | 15 | 224 | 1.6 | 4.8 | 0.20 | 0.33 | 0.25 | 92 | 1006.0 |
| 20260506170018 | 15 | 135 | 0.0 | 4.8 | 0.18 | 0.28 | 0.20 | 92 | 1006.0 |
| 20260506164517 | 15 | 333 | 1.6 | 3.2 | 0.15 | 0.23 | 0.15 | 91 | 1005.9 |
| 20260506163014 | 15 | 347 | 1.6 | 3.2 | 0.10 | 0.15 | 0.08 | 91 | 1006.0 |
| 20260506161510 | 15 | 347 | 0.0 | 1.6 | 0.10 | 0.13 | 0.05 | 90 | 1006.3 |
| 20260506160014 | 15 | 347 | 0.0 | 1.6 | 0.08 | 0.08 | 0.00 | 89 | 1006.4 |
| 20260506154507 | 15 | 347 | 0.0 | 1.6 | 0.08 | 0.08 | 0.08 | 88 | 1006.6 |
| 20260506153007 | 15 | 347 | 0.0 | 1.6 | 0.05 | 0.05 | 0.05 | 86 | 1006.9 |
| 20260506151504 | 16 | 347 | 0.0 | 1.6 | 0.03 | 0.03 | 0.03 | 83 | 1007.3 |
| 20260506150003 | 16 | 348 | 0.0 | 3.2 | 0.00 | 0.00 | 0.00 | 80 | 1007.6 |
| 20260506144504 | 16 | 348 | 1.6 | 3.2 | 0.00 | 0.00 | 0.00 | 78 | 1007.7 |
| 20260506143001 | 16 | 5 | 0.0 | 3.2 | 0.00 | 0.00 | 0.00 | 79 | 1007.3 |
| 20260506141611 | 16 | 174 | 0.0 | 3.2 | 0.00 | 0.00 | 0.00 | 79 | 1007.1 |
| 20260506140059 | 16 | 239 | 3.2 | 6.4 | 0.00 | 0.00 | 0.00 | 78 | 1007.3 |
| 20260506134558 | 16 | 121 | 0.0 | 6.4 | 0.00 | 0.00 | 0.00 | 80 | 1007.2 |
| 20260506133105 | 15 | 132 | 1.6 | 4.8 | 0.00 | 0.00 | 0.00 | 82 | 1007.3 |
| 20260506131556 | 15 | 134 | 0.0 | 4.8 | 0.00 | 0.00 | 0.00 | 83 | 1007.4 |
| 20260506130054 | 15 | 94 | 1.6 | 4.8 | 0.00 | 0.00 | 0.00 | 83 | 1007.8 |
| 20260506124552 | 14 | 127 | 0.0 | 4.8 | 0.00 | 0.00 | 0.00 | 84 | 1008.0 |
| 20260506123052 | 14 | 58 | 1.6 | 6.4 | 0.00 | 0.00 | 0.00 | 84 | 1008.0 |
| 20260506121559 | 13 | 79 | 1.6 | 4.8 | 0.00 | 0.00 | 0.00 | 84 | 1007.4 |
| 20260506120115 | 13 | 79 | 1.6 | 4.8 | 0.00 | 0.00 | 0.00 | 85 | 1007.7 |
| 20260506114548 | 13 | 68 | 1.6 | 6.4 | 0.00 | 0.00 | 0.00 | 86 | 1007.8 |